Williston, ND

6:24 AM CST on January 16, 2018 (GMT -0600)
Sloulin International

Weather History for KISN - December, 2011

Change the Weather History Date:

Saturday, December 24, 2011

  Actual Average Record
Temperature  
Mean Temperature 33 °F 12 °F  
Max Temperature 41 °F 22 °F 45 °F (1957)
Min Temperature 25 °F 1 °F -34 °F (1980)
Degree Days  
Heating Degree Days 32 53  
Month to date heating degree days 1011 1207  
Since 1 July heating degree days 2776 3369  
Cooling Degree Days 0 0  
Month to date cooling degree days 0 0  
Year to date cooling degree days 452 456  
Moisture  
Dew Point 22 °F    
Average Humidity 63    
Maximum Humidity 75    
Minimum Humidity 51    
Precipitation  
Precipitation 0.00 in 0.02 in 0.18 in (1934)
Month to date precipitation 0.12 0.47  
Year to date precipitation 19.17 14.22  
Sea Level Pressure  
Sea Level Pressure 30.18 in    
Wind  
Wind Speed 14 mph (WSW)    
Max Wind Speed 23 mph    
Max Gust Speed 29 mph    
Visibility 10 miles    
Events      
T = Trace of Precipitation, MM = Missing Value Source: NWS Daily Summary

Daily Weather History Graph

Daily Weather History Graph

Search for Another Location

Airport or City:

Trip Planner

Search our weather history database for the weather conditions in past years. The results will help you decide how hot, cold, wet, or windy it might be!

Date:

Astronomy

Dec. 24, 2011 Rise Set
Actual Time 8:43 AM CST 5:04 PM CST
Civil Twilight 8:07 AM CST 5:41 PM CST
Nautical Twilight 7:27 AM CST 6:21 PM CST
Astronomical Twilight 6:49 AM CST 6:59 PM CST
Moon 8:33 AM CST (12/24) 5:21 PM CST (12/24)
Length of Visible Light 9h 34m
Length of Day
8h 21m
New Moon, 0% of the Moon is Illuminated
Dec 24
New Moon
Dec 24
New
Jan 1
First Quarter
Jan 9
Full
Jan 16
Last Quarter

Hourly Weather History & Observations

Time (CST) Temp. Windchill Dew Point Humidity Pressure Visibility Wind Dir Wind Speed Gust Speed Precip Events Conditions
12:52 AM 28.4 °F 19.7 °F 19.4 °F 69% 30.05 in 10.0 mi SSW 9.2 mph - N/A   Clear
1:52 AM 28.0 °F 16.1 °F 19.9 °F 72% 30.12 in 10.0 mi West 16.1 mph - N/A   Clear
2:52 AM 28.0 °F 16.5 °F 19.9 °F 72% 30.13 in 10.0 mi WSW 15.0 mph - N/A   Clear
3:52 AM 27.0 °F 16.1 °F 19.0 °F 72% 30.14 in 10.0 mi West 12.7 mph - N/A   Clear
4:52 AM 26.1 °F 15.0 °F 19.0 °F 75% 30.16 in 10.0 mi WSW 12.7 mph - N/A   Clear
5:52 AM 27.0 °F 16.7 °F 19.0 °F 72% 30.17 in 10.0 mi WSW 11.5 mph - N/A   Clear
6:52 AM 27.0 °F 20.5 °F 19.0 °F 72% 30.16 in 10.0 mi South 5.8 mph - N/A   Clear
7:52 AM 30.0 °F 18.7 °F 19.9 °F 66% 30.14 in 10.0 mi WSW 16.1 mph - N/A   Clear
8:52 AM 32.0 °F 20.8 °F 21.0 °F 64% 30.14 in 10.0 mi WSW 17.3 mph - N/A   Clear
9:52 AM 32.0 °F 20.5 °F 21.9 °F 66% 30.13 in 10.0 mi West 18.4 mph 26.5 mph N/A   Scattered Clouds
10:52 AM 34.0 °F 23.0 °F 21.9 °F 61% 30.17 in 10.0 mi West 18.4 mph 28.8 mph N/A   Clear
11:52 AM 36.0 °F 26.3 °F 23.0 °F 59% 30.16 in 10.0 mi West 16.1 mph 24.2 mph N/A   Clear
12:52 PM 37.9 °F 27.9 °F 24.1 °F 57% 30.14 in 10.0 mi West 19.6 mph 26.5 mph N/A   Clear
1:52 PM 39.2 °F 29.8 °F 24.8 °F 56% 30.06 in 10.0 mi West 18.4 mph 27.6 mph N/A   Clear
2:52 PM 41.0 °F 32.2 °F 25.0 °F 53% 30.14 in 10.0 mi West 18.4 mph - N/A   Clear
3:52 PM 39.9 °F 31.1 °F 25.0 °F 55% 30.17 in 10.0 mi West 17.3 mph 25.3 mph N/A   Clear
4:52 PM 37.0 °F 29.8 °F 25.0 °F 62% 30.19 in 10.0 mi SW 10.4 mph - N/A   Clear
5:52 PM 34.0 °F 26.0 °F 25.0 °F 70% 30.20 in 10.0 mi SW 10.4 mph - N/A   Clear
6:52 PM 33.1 °F 24.4 °F 25.0 °F 72% 30.26 in 10.0 mi West 11.5 mph - N/A   Clear
7:52 PM 32.0 °F 22.5 °F 24.1 °F 73% 30.27 in 10.0 mi West 12.7 mph - N/A   Clear
8:52 PM 30.0 °F 20.0 °F 23.0 °F 75% 30.29 in 10.0 mi West 12.7 mph - N/A   Clear
9:52 PM 30.0 °F 20.5 °F 21.9 °F 72% 30.31 in 10.0 mi West 11.5 mph - N/A   Clear
10:52 PM 30.0 °F 22.4 °F 21.9 °F 72% 30.33 in 10.0 mi West 8.1 mph - N/A   Clear
11:52 PM 25.0 °F 20.7 °F 21.0 °F 85% 30.35 in 10.0 mi South 3.5 mph - N/A   Clear